Find Starlink 30242

NORAD ID: 57739 Int'l Des: 2023-131 Owner: SPXS Country: US Constellation: starlink operational
LEOCIRCULAR

当前视图

正在加载3D地球...

About Starlink 30242

Starlink 30242 (NORAD 57739) is a starlink constellation satellite (v2 mini) launched Sep 1, 2023 by SPXS of US. It operates in LEO, CIRCULAR orbit with a mass of 730.00 kg.

关于 Starlink 30242

正在加载描述...

即将过境

Passes for default location (London). Set your location on the main map for personalized predictions.

高度历史

Loading altitude history...

两行轨道根数

1 57739U 23131H 26177.50119860 -.00000590 00000-0 -11928-4 0 9995
2 57739 42.9991 249.1429 0001081 272.8501 87.2227 15.27572916156895
Epoch: Jun 26, 2026 • Age: 28 hours

当前状态

高度 484.4 km
速度 7.63 km/s
星下点 31.81°N, 120.63°E
发射日期 Sep 1, 2023
运行时间 2.8 years
类型 internet

技术详情

分类 Payload
质量 730.00 kg
干质量 700.00 kg
总质量 730.00 kg
长度 0.30 m
直径 4.10 m
跨度 29.00 m
形状 Box + pan
制造商 SPXS
平台类型 Starlink V2M
阶段状态 In Orbit
所有者/国家 SPXS/US

Most Searched